Regional Weather Roundup
Issued by NWS

Home | Current Version | Previous Version | Text Only | Print | Product List | Glossary Off
Versions: 1 2 3 4 5 6 7 8 9 10 11 12 13 14 15 16 17 18 19 20 21 22 23 24 25 26 27 28 29 30 31 32 33 34 35 36 37 38 39 40 41 42 43 44 45 46 47 48 49 50

000
ASUS43 KOAX 180210
RWRNE

WEATHER ROUNDUP FOR NEBRASKA
NATIONAL WEATHER SERVICE OMAHA NE
900 PM CDT THU APR 17 2014

NOTES: SATELLITE DATA IS BEING USED TO AUGMENT CLOUD COVER ABOVE
       12000 FEET.
       "FAIR" INDICATES FEW OR NO CLOUDS BELOW 12,000 FEET WITH NO
       SIGNIFICANT WEATHER AND/OR OBSTRUCTIONS TO VISIBILITY.

  * THESE STATIONS DO NOT REPORT WEATHER SUCH AS RAIN...SNOW OR FOG.

NEZ001>004-019>022-054>056-180300-
NEBRASKA PANHANDLE

CITY           SKY/WX    TMP DP  RH WIND       PRES   REMARKS
SCOTTSBLUFF    CLEAR     54  37  52 SE15      29.96S
ALLIANCE       PTCLDY    48  36  63 SE14      29.99S
CHADRON        PTCLDY    50  37  61 SE15      29.96F
KIMBALL        CLEAR     46  31  56 SE5       29.97S
SIDNEY         CLEAR     51  32  48 SE12      29.99S
$$

NEZ057>060-069>072-079>082-180300-
SOUTHWEST NEBRASKA

CITY           SKY/WX    TMP DP  RH WIND       PRES   REMARKS
NORTH PLATTE   PTCLDY    47  31  53 SE10      30.11S
IMPERIAL       PTCLDY    49  36  61 S20G35    30.09R
LEXINGTON      CLEAR     47  34  60 SE9       30.16S
MCCOOK         PTCLDY    50  33  52 SE9       30.14S
OGALLALA       CLEAR     51  36  55 S14G21    30.05S
$$

NEZ005>010-023>029-035>040-094-180300-
NORTH CENTRAL NEBRASKA

CITY           SKY/WX    TMP DP  RH WIND       PRES   REMARKS
VALENTINE      CLOUDY    49  26  41 SE12      30.08F
AINSWORTH      PTCLDY    44  27  50 SE8       30.11S
BROKEN BOW     CLEAR     44  29  55 SE9       30.14F
O`NEILL        CLEAR     45  21  38 SE8       30.17F
ORD            CLEAR     46  27  47 SE7       30.17S
THEDFORD       PTCLDY    50  32  51 SE8       30.11S
$$

NEZ041-046>049-061>064-073>077-083>087-180300-
SOUTH CENTRAL NEBRASKA

CITY           SKY/WX    TMP DP  RH WIND       PRES   REMARKS
GRAND ISLAND   CLEAR     47  28  47 SE6       30.21S
AURORA         CLEAR     46  25  43 SE6       30.21S
HASTINGS       CLEAR     49  27  42 SE7       30.20S
HEBRON         CLEAR     42  27  54 SE5       30.24R
HOLDREGE       CLEAR     44  31  60 SE8       30.18F
KEARNEY *      CLEAR     46  27  46 S9        30.20R
YORK           CLEAR     45  25  45 SE7       30.23R
$$

NEZ011>018-030>034-042>045-180300-
NORTHEAST NEBRASKA

CITY           SKY/WX    TMP DP  RH WIND       PRES   REMARKS
NORFOLK        MOCLDY    45  23  42 SE5       30.22R
ALBION         MOCLDY    44  24  44 E3        30.21R
BLAIR          CLEAR     50  21  32 CALM      30.24S
COLUMBUS *     PTCLDY    45  21  39 E3        30.23S
FREMONT        PTCLDY    48  23  38 E3        30.25R
TEKAMAH        PTCLDY    44  20  38 CALM      30.25R
$$

NEZ050>053-065>068-078-088>093-180300-
SOUTHEAST NEBRASKA

CITY           SKY/WX    TMP DP  RH WIND       PRES   REMARKS
LINCOLN        CLEAR     50  24  36 E7        30.26R
OMAHA EPPLEY   PTCLDY    49  26  41 E5        30.25R
BEATRICE       CLEAR     48  26  43 E5        30.24S
FALLS CITY     CLEAR     49  28  44 SE5       30.26R
NEBRASKA CITY  CLEAR     48  27  44 CALM      30.26R
PLATTSMOUTH    CLEAR     50  23  35 CALM      30.25R
$$

NEZ044-045-051>053-067-180300-
OMAHA AREA

CITY           SKY/WX    TMP DP  RH WIND       PRES   REMARKS
OMAHA EPPLEY   PTCLDY    49  26  41 E5        30.25R
BLAIR          CLEAR     50  21  32 CALM      30.24S
FREMONT        PTCLDY    48  23  38 E3        30.25R
MILLARD        CLEAR     47  25  41 CALM      30.25R
OFFUTT AFB     CLEAR     40  27  61 CALM      30.25R
PLATTSMOUTH    CLEAR     50  23  35 CALM      30.25R
WAHOO          FAIR      44  22  42 SE7       30.24S
$$



USA.gov is the U.S. government's official web portal to all federal, state and local government web resources and services.